RW6A-13 Weather Reports


Display with metric or nautical units.
time (UTC)temp
F
wind
direction
speed
MPH
gust
MPH
rain 1hr
in
rain 24hr
in
rain mn
in
humidity
%
barometer
mb
20260505125027 60 0 1.0 6.0 0.00 0.15 0.00 61 1008.3
20260505124527 61 90 0.0 5.0 0.00 0.15 0.00 64 1008.4
20260505124027 60 90 1.0 6.0 0.00 0.15 0.00 63 1008.4
20260505123527 60 90 2.0 6.0 0.00 0.15 0.00 62 1008.4
20260505123027 61 45 3.0 8.0 0.00 0.15 0.00 62 1008.4
20260505122526 61 45 3.0 7.0 0.00 0.15 0.00 63 1008.4
20260505122027 61 135 1.0 7.0 0.00 0.15 0.00 62 1008.5
20260505121527 61 90 2.0 8.0 0.00 0.15 0.00 61 1008.5
20260505121026 61 113 2.0 6.0 0.00 0.15 0.00 62 1008.6
20260505120526 61 135 2.0 5.0 0.00 0.15 0.00 60 1008.5
20260505120027 61 45 2.0 7.0 0.00 0.15 0.00 60 1008.5
20260505115526 61 0 2.0 5.0 0.00 0.15 0.00 60 1008.5
20260505115026 61 0 1.0 6.0 0.00 0.15 0.00 60 1008.5
20260505114526 62 90 2.0 5.0 0.00 0.15 0.00 60 1008.5
20260505114027 62 45 1.0 5.0 0.00 0.15 0.00 61 1008.5
20260505113526 61 68 3.0 7.0 0.00 0.15 0.00 61 1008.5
20260505113026 61 90 3.0 7.0 0.00 0.15 0.00 60 1008.5
20260505112527 62 135 2.0 8.0 0.00 0.15 0.00 60 1008.5
20260505112026 62 90 0.0 6.0 0.00 0.15 0.00 61 1008.6
20260505111526 61 135 2.0 7.0 0.00 0.15 0.00 62 1008.6
20260505111026 62 90 2.0 5.0 0.00 0.15 0.00 64 1008.6
20260505110526 61 90 3.0 8.0 0.00 0.15 0.00 62 1008.6
20260505102030 60 90 2.0 5.0 0.00 0.15 0.00 67 1008.9
20260505101525 59 90 2.0 5.0 0.00 0.15 0.00 68 1008.9
20260505101025 59 90 2.0 5.0 0.00 0.15 0.00 68 1008.9
20260505100526 59 90 0.0 5.0 0.00 0.15 0.00 68 1009.0
20260505100025 59 113 1.0 5.0 0.00 0.15 0.00 69 1009.0
20260505095525 59 90 1.0 5.0 0.00 0.15 0.00 69 1008.9
20260505095026 59 113 1.0 6.0 0.00 0.15 0.00 69 1009.0
20260505094319 59 90 2.0 6.0 0.00 0.15 0.00 70 1009.0
20260505093819 58 90 2.0 7.0 0.00 0.15 0.00 69 1008.9
20260505093319 58 45 1.0 5.0 0.00 0.15 0.00 71 1009.0
20260505092819 58 45 2.0 6.0 0.00 0.15 0.00 72 1009.0
20260505092319 58 45 1.0 5.0 0.00 0.15 0.00 73 1009.1
20260505091819 57 90 2.0 7.0 0.00 0.15 0.00 72 1009.1
20260505091319 57 45 0.0 4.0 0.00 0.15 0.00 73 1009.1
20260505090819 57 45 0.0 2.0 0.00 0.15 0.00 72 1009.1
20260505090319 57 90 0.0 8.0 0.00 0.15 0.00 73 1009.2
20260505085818 57 90 3.0 8.0 0.00 0.15 0.00 72 1009.1
20260505085319 57 45 2.0 4.0 0.00 0.15 0.00 73 1009.1
20260505084819 57 0 1.0 5.0 0.00 0.15 0.00 73 1009.2
20260505084318 57 135 2.0 5.0 0.00 0.15 0.00 75 1009.2
20260505083818 57 0 0.0 5.0 0.00 0.15 0.00 72 1009.2
20260505083319 57 135 2.0 7.0 0.00 0.15 0.00 72 1009.2
20260505082819 57 45 1.0 5.0 0.00 0.15 0.00 73 1009.3
20260505082318 57 90 0.0 4.0 0.00 0.15 0.00 74 1009.2
20260505081819 57 90 2.0 7.0 0.00 0.15 0.00 73 1009.2
20260505081319 56 90 4.0 8.0 0.00 0.15 0.00 72 1009.2
20260505080818 57 45 2.0 6.0 0.00 0.15 0.00 74 1009.2
20260505080318 56 90 2.0 3.0 0.00 0.15 0.00 75 1009.3
20260505075819 56 45 0.0 1.0 0.00 0.15 0.00 75 1009.3
20260505075318 56 45 1.0 3.0 0.00 0.15 0.00 76 1009.2
20260505074818 56 0 0.0 5.0 0.00 0.15 0.00 76 1009.2
20260505074318 56 90 2.0 5.0 0.00 0.15 0.00 76 1009.3
20260505073818 56 45 1.0 5.0 0.00 0.15 0.00 77 1009.3
20260505073318 56 135 0.0 4.0 0.00 0.15 0.00 78 1009.3
20260505072818 55 315 2.0 5.0 0.00 0.15 0.00 79 1009.3
20260505072317 55 135 0.0 4.0 0.00 0.15 0.00 79 1009.3
20260505071818 55 45 0.0 4.0 0.00 0.15 0.00 80 1009.3
20260505071318 55 90 2.0 6.0 0.00 0.15 0.00 79 1009.3
20260505070817 54 45 0.0 2.0 0.00 0.15 0.00 80 1009.3
20260505070318 54 90 0.0 3.0 0.00 0.15 0.00 80 1009.2
20260505065818 54 0 0.0 2.0 0.00 0.15 0.00 80 1009.2
20260505065318 54 90 0.0 5.0 0.00 0.15 0.00 81 1009.2
20260505064817 54 45 0.0 4.0 0.00 0.15 0.00 81 1009.2
20260505064317 53 45 0.0 2.0 0.00 0.15 0.00 82 1009.3
20260505063818 53 90 0.0 2.0 0.00 0.15 0.00 83 1009.3
20260505063317 53 0 0.0 1.0 0.00 0.15 0.00 83 1009.3
20260505062817 53 45 0.0 2.0 0.00 0.15 0.00 83 1009.3
20260505062317 53 0 0.0 2.0 0.00 0.15 0.00 83 1009.2
20260505061817 52 0 0.0 2.0 0.00 0.15 0.00 83 1009.3
20260505061317 52 68 2.0 3.0 0.00 0.15 0.00 84 1009.3
20260505060817 52 90 0.0 2.0 0.00 0.15 0.00 84 1009.4
20260505060318 52 45 1.0 3.0 0.00 0.15 0.00 84 1009.4
20260505055817 52 45 0.0 2.0 0.00 0.15 0.00 84 1009.4
20260505055317 52 90 0.0 2.0 0.00 0.15 0.00 85 1009.4
20260505054818 51 90 1.0 3.0 0.00 0.15 0.00 85 1009.5
20260505054317 51 90 0.0 2.0 0.00 0.15 0.00 86 1009.4
20260505053817 51 135 0.0 2.0 0.00 0.15 0.00 86 1009.4
20260505053316 51 90 0.0 3.0 0.00 0.15 0.00 85 1009.3
20260505052817 51 68 0.0 4.0 0.00 0.15 0.00 84 1009.3
20260505052317 51 68 1.0 5.0 0.00 0.15 0.00 84 1009.4
20260505051817 51 90 0.0 4.0 0.00 0.15 0.00 84 1009.3
20260505051316 51 0 1.0 3.0 0.00 0.15 0.00 84 1009.3
20260505050817 51 90 2.0 4.0 0.00 0.15 0.00 85 1009.3
20260505050317 51 45 1.0 4.0 0.00 0.15 0.00 86 1009.3
20260505041317 50 0 0.0 1.0 0.00 0.15 0.00 86 1009.0
20260505040816 50 45 0.0 2.0 0.00 0.15 0.00 86 1009.0
20260505040316 50 45 0.0 2.0 0.00 0.15 0.00 86 1009.0
20260505035816 50 90 1.0 4.0 0.00 0.15 0.00 86 1008.9
20260505035316 50 90 1.0 5.0 0.00 0.15 0.00 86 1008.9
20260505034816 49 45 1.0 5.0 0.00 0.15 0.00 86 1008.9
20260505034316 49 90 0.0 5.0 0.00 0.15 0.00 87 1008.9
20260505033816 49 90 1.0 2.0 0.00 0.15 0.00 87 1008.8
20260505033316 49 90 0.0 2.0 0.00 0.15 0.00 88 1008.8
20260505032816 49 45 0.0 0.0 0.00 0.15 0.00 88 1008.7
20260505032315 49 45 0.0 2.0 0.00 0.15 0.00 88 1008.7
20260505031816 49 90 0.0 2.0 0.00 0.15 0.00 87 1008.6
20260505031315 49 0 0.0 4.0 0.00 0.15 0.00 87 1008.6
20260505030815 49 135 0.0 5.0 0.00 0.15 0.00 87 1008.5
20260505030315 49 45 1.0 4.0 0.00 0.15 0.00 87 1008.5
20260505025816 49 45 0.0 4.0 0.00 0.15 0.00 87 1008.5
20260505025315 49 68 1.0 3.0 0.00 0.15 0.00 87 1008.4
20260505024815 49 90 1.0 5.0 0.00 0.15 0.00 87 1008.4
20260505024316 49 90 2.0 6.0 0.00 0.15 0.00 87 1008.4
20260505023816 49 45 0.0 4.0 0.00 0.15 0.00 87 1008.3
20260505023315 49 135 1.0 4.0 0.00 0.15 0.00 87 1008.3
20260505022815 49 45 0.0 3.0 0.00 0.15 0.00 87 1008.2
20260505022315 49 90 0.0 3.0 0.00 0.15 0.00 87 1008.2
20260505021815 49 0 1.0 5.0 0.00 0.15 0.00 87 1008.1
20260505021315 48 68 2.0 5.0 0.00 0.15 0.00 87 1008.0
20260505020815 49 90 0.0 5.0 0.00 0.15 0.00 87 1008.0
20260505020315 49 0 2.0 6.0 0.00 0.15 0.00 87 1008.0
20260505015815 49 90 0.0 5.0 0.00 0.15 0.00 87 1008.0
20260505015315 49 90 2.0 5.0 0.00 0.15 0.00 87 1007.9
20260505014815 49 90 2.0 4.0 0.00 0.15 0.00 87 1007.9
20260505014314 49 90 0.0 2.0 0.00 0.15 0.00 87 1007.9
20260505013815 49 0 0.0 1.0 0.00 0.15 0.00 87 1007.8
20260505013315 49 0 0.0 2.0 0.00 0.15 0.00 87 1007.8
20260505012814 49 45 0.0 2.0 0.00 0.15 0.00 87 1007.8
20260505012314 49 45 0.0 0.0 0.00 0.15 0.00 87 1007.9
20260505011815 49 45 0.0 2.0 0.00 0.15 0.00 87 1007.9
20260505011314 49 90 0.0 4.0 0.00 0.15 0.00 87 1007.9
20260505010815 49 0 1.0 3.0 0.00 0.15 0.00 87 1007.9
20260505010315 49 158 0.0 2.0 0.00 0.15 0.00 86 1007.9
20260505005814 49 45 0.0 2.0 0.00 0.15 0.00 86 1007.9
20260505005314 49 45 0.0 0.0 0.00 0.15 0.00 86 1007.9
20260505004815 49 0 0.0 2.0 0.00 0.15 0.00 85 1007.8
20260505004314 49 45 0.0 0.0 0.00 0.15 0.00 85 1007.8
20260505003814 49 90 0.0 0.0 0.00 0.15 0.00 85 1007.9
20260505003314 49 0 0.0 0.0 0.00 0.15 0.00 85 1007.8
20260505002814 49 90 0.0 2.0 0.00 0.15 0.00 85 1007.8
20260505002314 49 45 0.0 2.0 0.00 0.15 0.00 86 1007.8
20260505001815 49 45 0.0 1.0 0.00 0.15 0.00 86 1007.8
20260505001314 49 45 0.0 0.0 0.00 0.15 0.00 86 1007.8
20260505000814 49 45 0.0 1.0 0.00 0.15 0.00 87 1007.9
20260505000314 49 45 0.0 1.0 0.00 0.15 0.00 87 1007.9
20260504235814 49 45 0.0 0.0 0.00 0.15 0.00 87 1007.9
20260504235314 49 0 0.0 1.0 0.00 0.15 0.00 86 1007.9
20260504234814 49 90 0.0 2.0 0.00 0.15 0.00 86 1008.0
20260504234314 49 90 0.0 3.0 0.00 0.15 0.00 86 1008.0
20260504233814 49 45 0.0 3.0 0.00 0.15 0.00 86 1008.0
20260504233314 49 45 0.0 2.0 0.00 0.15 0.00 86 1008.0
20260504232813 49 0 0.0 2.0 0.00 0.15 0.00 87 1008.1
20260504232314 49 0 0.0 0.0 0.00 0.15 0.00 87 1008.1
20260504231814 49 45 0.0 0.0 0.00 0.15 0.00 87 1008.1
20260504231313 49 45 0.0 0.0 0.00 0.15 0.00 87 1008.2
20260504230813 49 45 0.0 0.0 0.00 0.15 0.00 87 1008.2
20260504230314 49 0 0.0 2.0 0.00 0.15 0.00 87 1008.3
20260504225813 49 45 0.0 1.0 0.00 0.15 0.00 86 1008.2
20260504225313 49 45 0.0 2.0 0.00 0.15 0.00 85 1008.2
20260504224814 49 45 0.0 2.0 0.00 0.15 0.00 85 1008.3
20260504224313 49 45 0.0 4.0 0.00 0.15 0.00 84 1008.2
20260504223813 50 90 0.0 2.0 0.00 0.15 0.00 84 1008.3
20260504223313 50 90 0.0 2.0 0.00 0.15 0.00 84 1008.3
20260504222813 50 45 0.0 2.0 0.00 0.15 0.00 83 1008.2
20260504222313 50 45 0.0 2.0 0.00 0.15 0.00 83 1008.3
20260504221813 50 135 0.0 3.0 0.00 0.15 0.00 84 1008.3
20260504221313 50 45 1.0 3.0 0.00 0.15 0.00 83 1008.3
20260504220813 50 90 0.0 2.0 0.00 0.15 0.00 84 1008.3
20260504220313 50 90 0.0 4.0 0.00 0.15 0.00 84 1008.2
20260504215813 49 45 1.0 3.0 0.00 0.15 0.00 84 1008.3
20260504215312 49 90 0.0 5.0 0.00 0.15 0.00 84 1008.2
20260504214813 49 45 1.0 4.0 0.00 0.15 0.00 84 1008.3
20260504214313 50 45 2.0 5.0 0.00 0.15 0.00 84 1008.2
20260504213812 49 113 1.0 5.0 0.00 0.15 0.00 85 1008.3
20260504213313 49 90 0.0 5.0 0.00 0.15 0.00 85 1008.3
20260504212813 50 90 2.0 4.0 0.00 0.15 0.00 85 1008.3
20260504212312 50 90 2.0 6.0 0.00 0.15 0.00 85 1008.4
20260504211812 50 45 0.0 5.0 0.00 0.15 0.00 84 1008.3
20260504211313 50 90 2.0 6.0 0.00 0.15 0.00 84 1008.4
20260504210812 49 90 1.0 5.0 0.00 0.15 0.00 85 1008.4
20260504210312 49 90 2.0 6.0 0.00 0.15 0.00 85 1008.3
20260504205813 49 90 1.0 4.0 0.00 0.15 0.00 85 1008.3
20260504205312 49 90 2.0 6.0 0.00 0.15 0.00 85 1008.3
20260504204812 49 90 2.0 5.0 0.00 0.15 0.00 86 1008.3
20260504204313 49 45 2.0 7.0 0.00 0.15 0.00 87 1008.3
20260504203812 49 90 2.0 5.0 0.00 0.15 0.00 87 1008.3
20260504203312 49 90 2.0 6.0 0.00 0.15 0.00 88 1008.3
20260504202812 49 45 1.0 5.0 0.00 0.15 0.00 89 1008.3
20260504202312 49 90 2.0 6.0 0.00 0.15 0.00 89 1008.5
20260504201812 49 90 2.0 6.0 0.00 0.15 0.00 90 1008.6
20260504201312 48 45 2.0 6.0 0.00 0.15 0.00 90 1008.5
20260504200812 48 90 2.0 7.0 0.00 0.15 0.00 91 1008.6
20260504200312 48 90 2.0 7.0 0.00 0.15 0.00 91 1008.6
20260504195812 48 45 0.0 5.0 0.00 0.15 0.00 91 1008.6
20260504195311 48 45 2.0 5.0 0.00 0.15 0.00 91 1008.7
20260504194812 48 45 2.0 4.0 0.00 0.15 0.00 91 1008.9
20260504194311 48 90 2.0 5.0 0.00 0.15 0.00 91 1008.9
20260504193811 48 135 1.0 4.0 0.00 0.15 0.00 91 1009.0
20260504193312 48 45 0.0 3.0 0.00 0.15 0.00 91 1009.0
20260504192812 48 90 0.0 3.0 0.00 0.15 0.00 91 1009.0
20260504192311 49 315 1.0 4.0 0.00 0.15 0.00 91 1008.9
20260504191812 49 90 1.0 5.0 0.00 0.15 0.00 91 1008.9
20260504191312 48 90 0.0 5.0 0.00 0.15 0.00 92 1009.0
20260504190811 48 135 0.0 2.0 0.00 0.15 0.00 92 1009.1
20260504190311 48 90 0.0 2.0 0.00 0.15 0.00 93 1009.1
20260504185811 48 90 0.0 0.0 0.00 0.15 0.00 93 1009.1
20260504185311 48 90 0.0 3.0 0.00 0.15 0.00 93 1009.1
20260504184811 48 0 0.0 1.0 0.00 0.15 0.00 93 1009.2
20260504184311 48 90 0.0 0.0 0.00 0.15 0.00 93 1009.3
20260504183811 48 0 0.0 2.0 0.00 0.15 0.00 93 1009.3
20260504183311 48 0 0.0 1.0 0.00 0.15 0.00 93 1009.3
20260504182811 48 45 0.0 4.0 0.00 0.15 0.00 93 1009.3
20260504182311 48 23 0.0 1.0 0.00 0.15 0.00 93 1009.4
20260504181810 48 45 0.0 2.0 0.00 0.15 0.00 93 1009.4
20260504181311 48 45 0.0 1.0 0.00 0.15 0.00 93 1009.3
20260504180811 48 45 0.0 1.0 0.00 0.15 0.00 94 1009.4
20260504180310 48 45 0.0 1.0 0.00 0.15 0.00 94 1009.4
20260504175811 48 45 0.0 1.0 0.00 0.15 0.00 94 1009.4
20260504175311 48 45 0.0 2.0 0.00 0.15 0.00 94 1009.5
20260504174810 48 45 0.0 2.0 0.00 0.15 0.00 95 1009.5
20260504174311 48 45 0.0 2.0 0.00 0.15 0.00 95 1009.5
20260504173811 48 45 0.0 0.0 0.00 0.15 0.00 95 1009.6
20260504173310 48 45 0.0 1.0 0.00 0.15 0.00 95 1009.6
20260504172810 48 90 0.0 1.0 0.00 0.15 0.00 95 1009.5
20260504172311 48 0 0.0 0.0 0.01 0.15 0.00 95 1009.5
20260504171810 48 0 0.0 1.0 0.01 0.15 0.00 95 1009.6
20260504171310 48 45 0.0 1.0 0.01 0.15 0.00 95 1009.6
20260504170810 48 45 0.0 1.0 0.02 0.15 0.00 95 1009.5
20260504170311 48 0 0.0 0.0 0.02 0.15 0.00 95 1009.4
20260504160310 48 45 0.0 6.0 0.04 0.12 0.00 94 1009.2
20260504150810 49 45 2.0 5.0 0.02 0.08 0.00 93 1008.8
20260504150309 50 0 0.0 5.0 0.03 0.08 0.00 93 1008.8
20260504141308 50 90 5.0 9.0 0.04 0.05 0.00 90 1008.4
20260504140809 50 113 2.0 7.0 0.04 0.05 0.00 90 1008.5
20260504140309 50 135 3.0 7.0 0.03 0.04 0.00 90 1008.5